Regional Weather Roundup
Issued by NWS

Home | Current Version | Previous Version | Graphics & Text | Print | Product List | Glossary On
Versions: 1 2 3 4 5 6 7 8 9 10 11 12 13 14 15 16 17 18 19 20 21 22 23 24 25 26 27 28 29 30 31 32 33 34 35 36 37 38 39 40 41 42 43 44 45 46 47 48 49 50
000
ASUS43 KLOT 311612
RWRIL

ILLINOIS REGIONAL WEATHER ROUNDUP
NATIONAL WEATHER SERVICE CHICAGO/ROMEOVILLE IL
1100 AM CDT MON AUG 31 2015

NOTE: "FAIR" INDICATES FEW OR NO CLOUDS BELOW 12,000 FEET WITH NO
SIGNIFICANT WEATHER AND/OR OBSTRUCTIONS TO VISIBILITY.

* THESE STATIONS ARE NOT UNDER NWS QUALITY CONTROL. THEY ALSO MAY NOT
  REPORT WEATHER SUCH AS PRECIPITATION OR FOG.

ILZ001-002-007-009-015-016-024-311700-
NORTHWEST ILLINOIS

CITY           SKY/WX    TMP DP  RH WIND       PRES   REMARKS
MOLINE         SUNNY     81  71  71 SE3       30.05R HX  85
STERLING*        N/A    N/A N/A N/A MISG        N/A
SAVANNA*       SUNNY     78  69  76 SE5       30.06S
$$

ILZ003-004-008-010-011-017-018-311700-
NORTH CENTRAL ILLINOIS

CITY           SKY/WX    TMP DP  RH WIND       PRES   REMARKS
ROCKFORD       SUNNY     78  68  71 S5        30.09S HX  80
FREEPORT*      SUNNY     73  71  93 SE5       30.09S
ROCHELLE*      SUNNY     77  71  80 S3        30.09S
DE KALB*       SUNNY     77  70  79 CALM      30.09S
PERU*          SUNNY     79  69  71 CALM      30.08S HX  82
$$

ILZ005-006-012>014-019>023-311700-
NORTHEAST ILLINOIS

CITY           SKY/WX    TMP DP  RH WIND       PRES   REMARKS
CHICAGO-OHARE  SUNNY     78  67  68 CALM      30.08S HX  80
CHICAGO-MIDWAY SUNNY     80  67  64 CALM      30.08S HX  82
AURORA         SUNNY     79  70  74 CALM      30.09F HX  82
LANSING*       SUNNY     77  69  76 CALM      30.10S
JOLIET*        SUNNY     80  71  73 CALM      30.09S HX  84
WAUKEGAN       MOSUNNY   75  67  76 VRB5      30.08S
DUPAGE AIRPORT SUNNY     78  68  71 CALM      30.08F HX  80
KANKAKEE*      SUNNY     79  72  79 CALM      30.10S HX  82
WHEELING       SUNNY     77  67  71 S3        30.10R
MORRIS*        SUNNY     75  73  93 CALM      30.07F
ROMEOVILLE*    SUNNY     78  69  74 CALM      30.09S HX  80
NORTHERLY ISL    N/A     72  66  81 NE3         N/A
$$

LMZ740>746-311700-
SOUTHERN LAKE MICHIGAN

STATION/POSITION SKY/WX   TEMP    WIND        PRES    VSBY  WAVE
                          AIR SEA DIR/SP/G                  HT/PER
                          (F)     (DEG/KT/KT) (MB)    (MI)  (FT/S)
SOUTHERN BUOY              66 70  270/  2/  4 1018.8R         0
BURNS HARBOR               72     290/  3/  5 1019.6R
$$

ILZ025>027-034>036-040-047-049-050-058-095>099-311700-
WEST-CENTRAL ILLINOIS

CITY           SKY/WX    TMP DP  RH WIND       PRES   REMARKS
QUINCY         SUNNY     84  71  65 SW6       30.05S HX  89
GALESBURG*     SUNNY     80  71  74 SE6       30.06F HX  84
MACOMB*        SUNNY     82  72  71 S5        30.08S HX  87
JACKSONVILLE*  SUNNY     85  72  66 SW3       30.07R HX  91
PITTSFIELD*    SUNNY     85  71  62 SE3       30.07S HX  90
$$

ILZ028>032-037-038-041>044-048-051>054-059>061-311700-
CENTRAL ILLINOIS

CITY           SKY/WX    TMP DP  RH WIND       PRES   REMARKS
PONTIAC        SUNNY     83  73  72 CALM      30.09S HX  89
BLOOMINGTON    SUNNY     81  74  79 VRB5      30.10S HX  86
DECATUR        PTSUNNY   81  71  71 S6        30.10R HX  85
PEORIA         SUNNY     84  71  65 SE6       30.07S HX  89
LACON*         SUNNY     80  71  73 SE3       30.06S HX  84
LINCOLN*       SUNNY     83  72  67 CALM      30.07S HX  88
SPRINGFIELD    SUNNY     84  73  69 S6        30.07F HX  90
TAYLORVILLE    MOSUNNY   81  72  74 S7        30.09S HX  84
$$

ILZ033-039-045-046-055>057-062-063-311700-
EAST-CENTRAL ILLINOIS

CITY           SKY/WX    TMP DP  RH WIND       PRES   REMARKS
CHAMPAIGN      CLOUDY    77  70  79 S9G18     30.11S
RANTOUL*       MOSUNNY   81  74  77 S7        30.10F HX  86
MATTOON        CLOUDY    71  68  90 S7        30.13R
PARIS*         MOSUNNY   80  71  74 SW8       30.13S HX  83
$$

ILZ079-100>102-311700-
SOUTHWEST ILLINOIS

CITY           SKY/WX    TMP DP  RH WIND       PRES   REMARKS
ALTON          PTSUNNY   75  72  88 E3        30.09
BELLEVILLE     MOSUNNY   80  74  82 SE5       30.08S HX  85
CAHOKIA*       MOSUNNY   85  70  60 VRB6      30.08R HX  89
SPARTA*        PTSUNNY   75  70  84 S7        30.12R
$$

ILZ064>066-069>071-074>076-080>082-084>086-088>090-092>094-311700-
SOUTH-CENTRAL ILLINOIS

CITY           SKY/WX    TMP DP  RH WIND       PRES   REMARKS
CARBONDALE     PTSUNNY   80  70  71 SW6       30.12R HX  83
CAIRO*         SUNNY     78  72  80 S5        30.13S HX  80
EFFINGHAM*     PTSUNNY   71  69  92 E3        30.14S THUNDER FOG
MARION         SUNNY     82  70  65 S6        30.13S HX  86
MT. VERNON     MOSUNNY   81  70  69 SW8       30.13R HX  84
SALEM*         CLOUDY    76  71  85 S5        30.13S
METROPOLIS*    SUNNY     80  71  74 S5        30.13F HX  83
$$

ILZ067-068-072-073-078-083-087-091-311700-
SOUTHEAST ILLINOIS

CITY           SKY/WX    TMP DP  RH WIND       PRES   REMARKS
LAWRENCEVILLE  PTSUNNY   81  69  67 SW9       30.14R HX  84
FLORA*         SUNNY     77  68  74 W3        30.14R
FAIRFIELD*     MOSUNNY   80  69  68 S5        30.12R HX  83
HARRISBURG*    SUNNY     81  67  62 SW8       30.13S HX  84
ROBINSON*      MOSUNNY   78  69  75 SW8       30.15R
CARMI*         SUNNY     80  69  71 S8        30.13S HX  82
$$

ABBREVIATIONS USED IN REMARKS
   TC - TEMPERATURE IN CELSIUS
  WCI - WIND CHILL INDEX
   HX - HEAT INDEX
  VSB - VISIBILITY
$$



USA.gov is the U.S. government's official web portal to all federal, state and local government web resources and services.